W9GWP Weather Reports


time (UTC)temp
C
wind
direction
speed
KPH
gust
KPH
rain 1hr
cm
rain 24hr
cm
rain mn
cm
humidity
%
barometer
mb
20260906121531 18 90 0.0 0.0 0.00 0.00 0.00 99 1046.0
20260906120025 17 82 0.0 0.0 0.00 0.00 0.00 99 1046.2
20260906114525 17 82 0.0 0.0 0.00 0.00 0.00 99 1046.0
20260906113022 17 82 0.0 0.0 0.00 0.00 0.00 99 1045.4
20260906111518 17 109 0.0 3.2 0.00 0.00 0.00 99 1045.5
20260906110019 17 150 0.0 0.0 0.00 0.00 0.00 99 1045.5
20260906104514 18 95 0.0 3.2 0.00 0.00 0.00 99 1045.5
20260906103014 17 99 0.0 0.0 0.00 0.00 0.00 99 1045.4
20260906101515 18 126 1.6 3.2 0.00 0.00 0.00 99 1045.4
20260906100012 18 111 0.0 1.6 0.00 0.00 0.00 99 1045.1
20260906094507 18 94 0.0 3.2 0.00 0.00 0.00 99 1044.9
20260906093005 18 90 0.0 0.0 0.00 0.00 0.00 99 1045.0
20260906091501 18 90 0.0 0.0 0.00 0.00 0.00 99 1045.0
20260906085958 18 126 0.0 0.0 0.00 0.00 0.00 99 1045.0
20260906084458 18 340 0.0 0.0 0.00 0.00 0.00 99 1045.0
20260906082957 18 345 0.0 0.0 0.00 0.00 0.00 99 1044.9
20260906081455 18 345 0.0 0.0 0.00 0.00 0.00 99 1045.0
20260906075955 17 345 0.0 0.0 0.00 0.00 0.00 98 1044.8
20260906074450 17 270 0.0 0.0 0.00 0.00 0.00 98 1044.8
20260906072946 17 270 0.0 0.0 0.00 0.00 0.00 98 1044.9
20260906071445 18 261 0.0 0.0 0.00 0.00 0.00 98 1044.8
20260906065943 18 261 0.0 0.0 0.00 0.00 0.00 98 1044.8
20260906064441 18 188 0.0 1.6 0.00 0.00 0.00 98 1044.9
20260906062937 18 196 0.0 0.0 0.00 0.00 0.00 98 1044.9
20260906061435 18 172 0.0 0.0 0.00 0.00 0.00 98 1045.0
20260906055934 18 165 0.0 0.0 0.00 0.00 0.00 98 1044.9
20260906054432 18 180 0.0 1.6 0.00 0.00 0.00 98 1044.9
20260906052930 18 123 0.0 0.0 0.00 0.00 0.00 98 1044.9
20260906051429 18 98 0.0 0.0 0.00 0.00 0.00 98 1044.7
20260906045924 19 98 0.0 0.0 0.00 0.00 0.00 97 1044.5
20260906044419 19 345 0.0 0.0 0.00 0.00 0.00 97 1044.6
20260906042918 19 123 0.0 0.0 0.00 0.00 0.00 97 1044.3
20260906041414 19 99 0.0 0.0 0.00 0.00 0.00 97 1044.3
20260906035911 20 99 0.0 4.8 0.00 0.00 0.00 96 1044.1
20260906034407 20 90 0.0 0.0 0.00 0.00 0.00 96 1044.1
20260906032904 20 66 0.0 4.8 0.00 0.00 0.00 96 1043.8
20260906031402 20 103 0.0 1.6 0.00 0.00 0.00 95 1043.8
20260906025858 20 90 0.0 3.2 0.00 0.00 0.00 95 1044.1
20260906024356 20 61 3.2 4.8 0.00 0.00 0.00 95 1043.7
20260906022854 20 330 6.4 6.4 0.00 0.00 0.00 94 1043.8
20260906021350 20 126 1.6 6.4 0.00 0.00 0.00 93 1043.7
20260906015845 20 165 0.0 1.6 0.00 0.00 0.00 93 1043.7
20260906014344 21 90 0.0 4.8 0.00 0.00 0.00 92 1043.8
20260906012843 21 7 0.0 4.8 0.00 0.00 0.00 92 1044.1
20260906011339 21 77 0.0 4.8 0.00 0.00 0.00 92 1044.0
20260906005838 21 139 0.0 8.0 0.00 0.00 0.00 92 1043.8
20260906004336 21 254 0.0 4.8 0.00 0.00 0.00 92 1043.7
20260906002833 21 121 3.2 6.4 0.00 0.00 0.00 92 1043.3
20260906001329 21 315 0.0 3.2 0.00 0.00 0.00 92 1043.5
20260905235825 21 90 0.0 6.4 0.00 0.00 0.00 92 1043.3
20260905234321 21 101 0.0 8.0 0.00 0.00 0.00 91 1043.7
20260905232816 22 15 0.0 6.4 0.00 0.00 0.00 90 1043.5
20260905231315 22 70 6.4 8.0 0.00 0.00 0.00 89 1043.4
20260905225815 22 63 4.8 11.3 0.00 0.00 0.00 89 1043.1
20260905224311 22 74 0.0 9.7 0.00 0.00 0.00 88 1043.1
20260905222810 23 355 0.0 6.4 0.00 0.00 0.00 87 1042.9
20260905221308 24 8 0.0 4.8 0.00 0.00 0.00 84 1043.1
20260905215804 24 355 0.0 3.2 0.00 0.00 0.00 86 1042.7
20260905214303 25 324 3.2 3.2 0.00 0.00 0.00 85 1042.8
20260905212800 25 135 0.0 14.5 0.00 0.00 0.00 83 1042.4
20260905211255 25 147 0.0 11.3 0.00 0.00 0.00 81 1042.2
20260905205751 26 81 0.0 3.2 0.00 0.00 0.00 82 1042.3
20260905204247 25 99 1.6 4.8 0.00 0.00 0.00 84 1042.0
20260905202743 26 334 3.2 9.7 0.00 0.00 0.00 80 1042.2
20260905201240 27 195 0.0 3.2 0.00 0.00 0.00 75 1042.2
20260905195741 26 243 0.0 4.8 0.00 0.00 0.00 78 1042.2
20260905194236 26 301 0.0 8.0 0.00 0.00 0.00 80 1042.2
20260905192733 26 301 3.2 8.0 0.00 0.00 0.00 81 1042.5
20260905191232 27 5 3.2 3.2 0.00 0.00 0.00 79 1042.7
20260905185729 26 323 3.2 6.4 0.00 0.00 0.00 83 1042.9
20260905184229 25 0 3.2 4.8 0.00 0.00 0.00 84 1042.9
20260905182724 25 255 0.0 12.9 0.00 0.00 0.00 85 1043.0
20260905181224 24 11 3.2 6.4 0.00 0.00 0.00 86 1042.8
20260905175720 24 352 0.0 6.4 0.00 0.00 0.00 87 1042.7
20260905174218 24 82 1.6 3.2 0.00 0.00 0.00 87 1042.6
20260905172714 23 261 0.0 4.8 0.00 0.00 0.00 89 1043.1
20260905171212 23 97 0.0 3.2 0.00 0.00 0.00 89 1042.8
20260905165709 23 105 1.6 3.2 0.00 0.00 0.00 89 1042.9
20260905164204 23 306 0.0 4.8 0.00 0.00 0.00 88 1043.3
20260905162704 23 90 0.0 4.8 0.00 0.00 0.00 88 1042.8
20260905161203 23 75 0.0 6.4 0.00 0.00 0.00 90 1043.1
20260905155701 23 286 0.0 4.8 0.00 0.00 0.00 89 1043.1
20260905154157 23 114 0.0 4.8 0.00 0.00 0.00 90 1042.8
20260905152654 23 45 0.0 6.4 0.00 0.00 0.00 90 1042.7
20260905151151 23 75 0.0 1.6 0.00 0.00 0.00 90 1042.4
20260905145648 23 123 3.2 4.8 0.00 0.00 0.00 91 1042.5
20260905144148 23 103 0.0 4.8 0.00 0.00 0.00 92 1042.5
20260905142647 23 140 0.0 3.2 0.00 0.00 0.00 91 1042.4
20260905141144 23 249 8.0 8.0 0.00 0.00 0.00 91 1042.1
20260905135640 23 135 3.2 4.8 0.00 0.00 0.00 93 1042.0
20260905134134 22 337 0.0 9.7 0.00 0.00 0.00 95 1042.0
20260905132630 22 135 3.2 8.0 0.00 0.00 0.00 96 1042.0
20260905131126 22 195 0.0 4.8 0.00 0.00 0.00 98 1042.5
20260905125626 22 352 0.0 3.2 0.00 0.00 0.00 98 1041.6
20260905124126 22 352 0.0 3.2 0.00 0.00 0.00 99 1041.7
20260905122624 22 0 1.6 8.0 0.00 0.00 0.00 99 1041.2